Weather History for Chadron, NE

Change the Weather History Date:

Saturday, December 10, 2011

  Actual Average Record
Temperature  
Mean Temperature 33 °F 25 °F  
Max Temperature 51 °F 38 °F 67 °F (1981)
Min Temperature 14 °F 11 °F -19 °F (1919)
Degree Days  
Heating Degree Days 32 40  
Month to date heating degree days 427 393  
Since 1 July heating degree days 1903 2077  
Cooling Degree Days 0 0  
Month to date cooling degree days 0 0  
Year to date cooling degree days 902 712  
Moisture  
Dew Point 17 °F    
Average Humidity 59    
Maximum Humidity 88    
Minimum Humidity 30    
Precipitation  
Precipitation 0.00 in 0.02 in 1.04 in (1915)
Month to date precipitation 0.02 0.17  
Year to date precipitation 17.61 17.70  
Sea Level Pressure  
Sea Level Pressure 30.28 in    
Wind  
Wind Speed 6 mph (SW)    
Max Wind Speed 12 mph    
Max Gust Speed 15 mph    
Visibility 10 miles    
Events      
T = Trace of Precipitation, MM = Missing Value Source: NWS Daily Summary

Daily Weather History Graph

Daily Weather History Graph

Search for Another Location

Airport:

Trip Planner

Search our weather history database for the weather conditions in past years. The results will help you decide how hot, cold, wet, or windy it might be!

Date:

Astronomy

Dec. 10, 2011 Rise Set
Actual Time 7:12 AM MST 4:18 PM MST
Civil Twilight 6:39 AM MST 4:50 PM MST
Nautical Twilight 6:04 AM MST 5:25 PM MST
Astronomical Twilight 5:29 AM MST 6:00 PM MST
Moon 4:33 PM MST (12/10) 7:14 AM MST (12/10)
Length of Visible Light 10h 10m
Length of Day
9h 06m
Full, 100% of the Moon is Illuminated
Dec 10
Full
Dec 17
Last Quarter
Dec 24
New
Dec 31
First Quarter
Jan 9
Full

Hourly Weather History & Observations

Time (MST) Temp. Windchill Dew Point Humidity Pressure Visibility Wind Dir Wind Speed Gust Speed Precip Events Conditions
1:53 AM 17.1 °F 8.7 °F 12.0 °F 81% 30.40 in 10.0 mi SSW 5.8 mph - N/A   Clear
2:53 AM 19.0 °F 13.9 °F 12.9 °F 77% 30.40 in 10.0 mi South 3.5 mph - N/A   Clear
3:53 AM 16.0 °F 7.4 °F 10.9 °F 81% 30.40 in 10.0 mi WSW 5.8 mph - N/A   Clear
5:53 AM 16.0 °F 10.4 °F 10.9 °F 81% 30.44 in 10.0 mi SSW 3.5 mph - N/A   Clear
6:53 AM 15.1 °F 4.2 °F 10.9 °F 84% 30.43 in 10.0 mi SW 8.1 mph - N/A   Clear
7:53 AM 18.0 °F 12.7 °F 12.9 °F 81% 30.42 in 10.0 mi SW 3.5 mph - N/A   Clear
8:53 AM 27.0 °F 20.5 °F 18.0 °F 69% 30.38 in 10.0 mi SW 5.8 mph - N/A   Clear
9:53 AM 37.9 °F 33.5 °F 21.9 °F 53% 30.37 in 10.0 mi WSW 5.8 mph - N/A   Clear
10:53 AM 44.1 °F 40.1 °F 21.0 °F 40% 30.35 in 10.0 mi WSW 6.9 mph - N/A   Clear
11:53 AM 46.9 °F - 21.0 °F 36% 30.30 in 10.0 mi West 10.4 mph - N/A   Clear
12:53 PM 48.9 °F - 21.9 °F 35% 30.27 in 10.0 mi SW 8.1 mph - N/A   Clear
2:53 PM 51.1 °F - 21.9 °F 32% 30.21 in 10.0 mi SSW 6.9 mph - N/A   Clear
3:53 PM 43.0 °F 38.8 °F 21.9 °F 43% 30.22 in 9.0 mi South 6.9 mph - N/A   Clear
4:53 PM 36.0 °F 33.3 °F 21.0 °F 55% 30.22 in 10.0 mi SW 3.5 mph - N/A   Clear
5:53 PM 33.1 °F 27.7 °F 19.9 °F 59% 30.22 in 10.0 mi WSW 5.8 mph - N/A   Clear
6:53 PM 32.0 °F - 19.9 °F 61% 30.21 in 10.0 mi Calm Calm - N/A   Clear
7:53 PM 28.9 °F 25.2 °F 19.0 °F 67% 30.19 in 10.0 mi WSW 3.5 mph - N/A   Clear
8:53 PM 24.1 °F - 18.0 °F 77% 30.17 in 10.0 mi Calm Calm - N/A   Clear
9:53 PM 21.9 °F 12.5 °F 16.0 °F 78% 30.14 in 10.0 mi WSW 8.1 mph - N/A   Clear
10:53 PM 26.1 °F 20.5 °F 18.0 °F 71% 30.10 in 10.0 mi SW 4.6 mph - N/A   Clear
11:53 PM 26.1 °F 21.9 °F 17.1 °F 69% 30.07 in 10.0 mi West 3.5 mph - N/A   Clear